Tracking 22836 objects as of 16-Apr-2021
HD Live streaming from Space Station
objects crossing your sky now

STARLINK-1751

Track STARLINK-1751 now!
10-day predictions
STARLINK-1751 is classified as:


NORAD ID: 46378
Int'l Code: 2020-062BF
Perigee: 553.6 km
Apogee: 555.1 km
Inclination: 53.1 °
Period: 95.6 minutes
Semi major axis: 6925 km
RCS: Unknown
Launch date: September 3, 2020
Source: United States (US)
Launch site: AIR FORCE EASTERN TEST RANGE (AFETR)
aabbcc
Your satellite tracking list
Your tracking list is empty




NASA's NSSDC Master Catalog

Two Line Element Set (TLE):
1 46378U 20062BF  21105.64540451  .00000479  00000-0  51049-4 0  9999
2 46378  53.0572  82.9302 0001134  65.7652 294.3456 15.06396780 35282
Source of the keplerian elements: AFSPC